Location: Horowhenua
(40.7500°S, 175.3333°E)
Time: 14:27:13
(UTC+00:00)

Cosmos 1758 - Visible Passes

Search period start: 25 September 2023 00:00
Search period end: 05 October 2023 00:00
Orbit: 523 x 550 km, 82.5° (Epoch: 24 September)

Date Brightness Start Highest point End Pass type
(mag) Time Alt. Az. Time Alt. Az. Time Alt. Az.
25 Sep 5.4 07:25:24 10° SE 07:26:36 13° ESE 07:26:36 13° ESE visible
25 Sep 5.3 08:59:58 10° SSW 09:02:04 27° SW 09:02:04 27° SW visible
26 Sep 5.2 07:16:53 10° SE 07:18:41 13° ESE 07:18:41 13° ESE visible
26 Sep 4.8 08:51:23 10° SSW 08:54:10 35° SW 08:54:10 35° SW visible
27 Sep 5.2 07:08:22 10° SE 07:10:17 13° ESE 07:10:50 13° E visible
27 Sep 4.4 08:42:49 10° SSW 08:46:19 44° WSW 08:46:19 44° WSW visible
28 Sep 5.2 06:59:51 10° SE 07:01:43 13° ESE 07:03:02 11° E visible
28 Sep 4.2 08:34:14 10° SSW 08:38:08 47° W 08:38:31 45° WNW visible
29 Sep 5.3 06:51:20 10° SE 06:53:07 13° ESE 06:54:54 10° E visible
29 Sep 4.2 08:25:39 10° SSW 08:29:34 48° W 08:30:47 35° NW visible
30 Sep 4.2 08:17:02 10° SSW 08:20:59 49° W 08:23:09 24° NNW visible
01 Oct 4.2 08:08:26 10° SSW 08:12:22 50° W 08:15:35 15° NNW visible
02 Oct 4.1 07:59:49 10° SSW 08:03:46 51° W 08:07:42 10° N visible
03 Oct 4.1 07:51:10 10° SSW 07:55:10 52° W 07:59:06 10° N visible
04 Oct 4.1 07:42:33 10° SSW 07:46:32 54° W 07:50:29 10° N visible
